TimePDT,TemperatureF,Dew PointF,Humidity,Sea Level PressureIn,VisibilityMPH,Wind Direction,Wind SpeedMPH,Gust SpeedMPH,PrecipitationIn,Events,Conditions,WindDirDegrees,DateUTC
12:03 AM,37.4,37.4,100,30.08,1.8,SSW,3.5,-,N/A,,Clear,200,2013-10-09 07:03:00
12:08 AM,37.4,37.4,100,30.08,2.5,SSW,2.3,-,N/A,,Clear,200,2013-10-09 07:08:00
12:13 AM,37.4,35.6,93,30.08,4.0,South,3.5,-,N/A,,Clear,190,2013-10-09 07:13:00
12:18 AM,37.4,35.6,93,30.08,1.5,SW,1.2,-,N/A,,Clear,220,2013-10-09 07:18:00
12:23 AM,37.4,37.4,100,30.09,0.8,South,2.3,-,N/A,,Clear,190,2013-10-09 07:23:00
12:28 AM,39.2,39.2,100,30.09,0.5,South,2.3,-,N/A,Fog,Fog,190,2013-10-09 07:28:00
12:33 AM,39.2,39.2,100,30.08,0.5,South,1.2,-,N/A,Fog,Fog,190,2013-10-09 07:33:00
12:38 AM,39.2,39.2,100,30.08,0.2,South,2.3,-,N/A,Fog,Fog,170,2013-10-09 07:38:00
12:43 AM,39.2,39.2,100,30.09,0.2,East,1.2,-,N/A,Fog,Fog,100,2013-10-09 07:43:00
12:48 AM,39.2,39.2,100,30.09,0.5,South,2.3,-,N/A,Fog,Fog,190,2013-10-09 07:48:00
12:53 AM,39.2,39.2,100,30.09,0.5,Calm,Calm,-,N/A,Fog,Fog,0,2013-10-09 07:53:00
12:58 AM,37.4,37.4,100,30.11,0.5,Calm,Calm,-,N/A,Fog,Fog,0,2013-10-09 07:58:00
1:03 AM,37.4,37.4,100,30.09,0.5,Calm,Calm,-,N/A,Fog,Fog,0,2013-10-09 08:03:00
1:08 AM,37.4,37.4,100,30.09,0.5,Calm,Calm,-,N/A,Fog,Fog,0,2013-10-09 08:08:00
1:13 AM,37.4,37.4,100,30.09,1.8,Calm,Calm,-,N/A,,Clear,0,2013-10-09 08:13:00
1:18 AM,35.6,35.6,100,30.10,6.0,Calm,Calm,-,N/A,,Clear,0,2013-10-09 08:18:00
1:23 AM,37.4,35.6,93,30.10,2.5,Calm,Calm,-,N/A,,Clear,0,2013-10-09 08:23:00
1:28 AM,37.4,37.4,100,30.10,1.2,South,2.3,-,N/A,,Clear,170,2013-10-09 08:28:00
1:33 AM,37.4,37.4,100,30.10,1.0,SSW,1.2,-,N/A,,Clear,200,2013-10-09 08:33:00
1:38 AM,37.4,37.4,100,30.11,0.8,South,2.3,-,N/A,,Clear,180,2013-10-09 08:38:00
1:43 AM,37.4,35.6,93,30.11,0.5,South,3.5,-,N/A,Fog,Fog,190,2013-10-09 08:43:00
1:53 AM,35.6,35.6,100,30.11,1.0,South,3.5,-,N/A,,Clear,180,2013-10-09 08:53:00
1:58 AM,35.6,35.6,100,30.13,2.0,South,2.3,-,N/A,,Clear,180,2013-10-09 08:58:00
2:03 AM,35.6,35.6,100,30.11,2.5,SSW,2.3,-,N/A,,Clear,210,2013-10-09 09:03:00
2:08 AM,33.8,33.8,100,30.11,2.0,South,1.2,-,N/A,,Clear,170,2013-10-09 09:08:00
2:13 AM,35.6,33.8,93,30.11,1.2,South,1.2,-,N/A,,Clear,190,2013-10-09 09:13:00
2:18 AM,35.6,35.6,100,30.11,0.8,SSE,3.5,-,N/A,,Clear,160,2013-10-09 09:18:00
2:23 AM,35.6,35.6,100,30.11,1.0,SSE,2.3,-,N/A,,Clear,150,2013-10-09 09:23:00
2:28 AM,35.6,35.6,100,30.11,2.5,SSE,2.3,-,N/A,,Clear,160,2013-10-09 09:28:00
2:33 AM,37.4,37.4,100,30.11,4.0,Calm,Calm,-,N/A,,Clear,0,2013-10-09 09:33:00
2:48 AM,37.4,37.4,100,30.11,1.0,Calm,Calm,-,N/A,,Clear,0,2013-10-09 09:48:00
2:51 AM,37.4,37.4,100,30.11,0.5,Variable,1.2,-,N/A,Fog,Fog,0,2013-10-09 09:51:00
2:56 AM,37.4,37.4,100,30.11,0.5,West,2.3,-,N/A,Fog,Fog,280,2013-10-09 09:56:00
2:58 AM,37.4,37.4,100,30.13,0.5,WNW,1.2,-,N/A,Fog,Fog,290,2013-10-09 09:58:00
3:03 AM,37.4,37.4,100,30.11,0.8,SSE,3.5,-,N/A,,Mist,160,2013-10-09 10:03:00
3:08 AM,37.4,37.4,100,30.11,0.5,South,2.3,-,N/A,Fog,Fog,170,2013-10-09 10:08:00
3:13 AM,35.6,33.8,93,30.11,0.5,SSW,4.6,-,N/A,Fog,Fog,200,2013-10-09 10:13:00
3:18 AM,35.6,35.6,100,30.11,0.8,South,4.6,-,N/A,,Mostly Cloudy,190,2013-10-09 10:18:00
3:23 AM,35.6,35.6,100,30.11,2.5,South,3.5,-,N/A,,Mostly Cloudy,180,2013-10-09 10:23:00
3:28 AM,35.6,35.6,100,30.11,6.0,SSW,4.6,-,N/A,,Scattered Clouds,210,2013-10-09 10:28:00
3:38 AM,35.6,35.6,100,30.12,10.0,Variable,3.5,-,N/A,,Scattered Clouds,0,2013-10-09 10:38:00
3:58 AM,34.9,34.7,99,30.14,10.0,SSE,2.3,-,N/A,,Scattered Clouds,160,2013-10-09 10:58:00
4:43 AM,35.6,35.6,100,30.12,2.0,SE,2.3,-,N/A,,Clear,140,2013-10-09 11:43:00
4:48 AM,35.6,35.6,100,30.12,1.5,SSE,2.3,-,N/A,,Clear,160,2013-10-09 11:48:00
4:53 AM,35.6,35.6,100,30.12,2.5,South,1.2,-,N/A,,Clear,170,2013-10-09 11:53:00
4:58 AM,35.6,35.4,99,30.14,5.0,SSW,3.5,-,N/A,,Clear,210,2013-10-09 11:58:00
5:33 AM,35.6,33.8,93,30.12,2.5,Calm,Calm,-,N/A,,Clear,0,2013-10-09 12:33:00
5:38 AM,35.6,33.8,93,30.12,1.2,Calm,Calm,-,N/A,,Clear,0,2013-10-09 12:38:00
5:43 AM,35.6,35.6,100,30.12,0.8,Calm,Calm,-,N/A,,Clear,0,2013-10-09 12:43:00
5:48 AM,35.6,35.6,100,30.12,0.5,SE,1.2,-,N/A,Fog,Fog,140,2013-10-09 12:48:00
5:53 AM,33.8,33.8,100,30.12,0.8,Calm,Calm,-,N/A,,Clear,0,2013-10-09 12:53:00
5:58 AM,33.8,33.8,100,30.14,1.5,West,1.2,-,N/A,,Clear,280,2013-10-09 12:58:00
6:03 AM,35.6,33.8,93,30.12,2.5,SW,1.2,-,N/A,,Clear,220,2013-10-09 13:03:00
6:08 AM,35.6,35.6,100,30.12,5.0,South,1.2,-,N/A,,Clear,190,2013-10-09 13:08:00
6:13 AM,35.6,35.6,100,30.12,1.5,Calm,Calm,-,N/A,,Clear,0,2013-10-09 13:13:00
6:18 AM,35.6,33.8,93,30.12,1.0,West,2.3,-,N/A,,Clear,260,2013-10-09 13:18:00
6:20 AM,35.6,35.6,100,30.12,1.2,West,2.3,-,N/A,,Partly Cloudy,270,2013-10-09 13:20:00
6:25 AM,35.6,35.6,100,30.13,3.0,NNW,1.2,-,N/A,,Scattered Clouds,330,2013-10-09 13:25:00
6:58 AM,33.1,32.9,99,30.15,7.0,SSE,2.3,-,N/A,,Clear,150,2013-10-09 13:58:00
7:03 AM,32.0,32.0,100,30.13,2.0,SE,2.3,-,N/A,,Clear,140,2013-10-09 14:03:00
7:13 AM,32.0,32.0,100,30.13,6.0,WSW,3.5,-,N/A,,Clear,240,2013-10-09 14:13:00
7:49 AM,32.0,32.0,100,30.15,10.0,WNW,1.2,-,N/A,,Partly Cloudy,290,2013-10-09 14:49:00
7:58 AM,33.8,33.4,99,30.17,10.0,WSW,1.2,-,N/A,,Mostly Cloudy,250,2013-10-09 14:58:00
8:58 AM,39.2,38.8,99,30.17,10.0,SE,2.3,-,N/A,,Mostly Cloudy,130,2013-10-09 15:58:00
9:56 AM,42.8,42.8,100,30.13,10.0,West,1.2,-,N/A,,Overcast,260,2013-10-09 16:56:00
10:23 AM,46.4,44.6,93,30.13,10.0,NW,3.5,-,N/A,,Scattered Clouds,310,2013-10-09 17:23:00
10:56 AM,50.0,44.6,82,30.13,10.0,NW,5.8,-,N/A,,Overcast,320,2013-10-09 17:56:00
11:56 AM,51.8,44.6,76,30.12,10.0,NW,4.6,-,N/A,,Scattered Clouds,310,2013-10-09 18:56:00
12:56 PM,53.6,44.6,72,30.09,10.0,NNW,3.5,-,N/A,,Partly Cloudy,330,2013-10-09 19:56:00
1:58 PM,54.7,45.7,72,30.09,10.0,NW,2.3,-,N/A,,Mostly Cloudy,310,2013-10-09 20:58:00
2:58 PM,54.9,46.2,73,30.08,10.0,Variable,3.5,-,N/A,,Mostly Cloudy,0,2013-10-09 21:58:00
3:39 PM,57.2,44.6,63,30.05,10.0,Calm,Calm,-,N/A,Rain,Light Rain,0,2013-10-09 22:39:00
3:42 PM,57.2,44.6,63,30.05,10.0,Variable,1.2,-,N/A,,Mostly Cloudy,0,2013-10-09 22:42:00
3:58 PM,56.3,45.3,67,30.06,10.0,North,2.3,-,N/A,,Partly Cloudy,10,2013-10-09 22:58:00
4:58 PM,57.9,44.2,60,30.04,10.0,SE,2.3,-,N/A,,Clear,140,2013-10-09 23:58:00
5:58 PM,55.9,45.5,68,30.03,10.0,Calm,Calm,-,N/A,,Clear,0,2013-10-10 00:58:00
6:58 PM,47.5,44.8,90,30.03,10.0,ESE,1.2,-,N/A,,Clear,120,2013-10-10 01:58:00
7:58 PM,47.5,46.4,96,30.02,10.0,Calm,Calm,-,N/A,,Partly Cloudy,0,2013-10-10 02:58:00
8:58 PM,45.3,44.8,98,30.02,10.0,Calm,Calm,-,N/A,,Clear,0,2013-10-10 03:58:00
9:58 PM,46.4,45.5,97,29.99,10.0,South,3.5,-,N/A,,Scattered Clouds,190,2013-10-10 04:58:00
10:58 PM,46.6,45.9,97,29.97,10.0,South,3.5,-,N/A,,Scattered Clouds,180,2013-10-10 05:58:00
11:58 PM,47.1,44.6,91,29.97,10.0,South,4.6,-,N/A,,Clear,170,2013-10-10 06:58:00